GW7081 Weather Reports


Display with metric or nautical units.
time (UTC)temp
F
wind
direction
speed
MPH
gust
MPH
rain 1hr
in
rain 24hr
in
rain mn
in
humidity
%
barometer
mb
20260503214503 89 279 2.0 5.0 0.00 0.00 0.00 33 1010.3
20260503213016 89 293 1.0 5.0 0.00 0.00 0.00 34 1010.4
20260503211518 88 283 2.0 7.0 0.00 0.00 0.00 36 1010.5
20260503210017 88 296 1.0 5.0 0.00 0.00 0.00 36 1010.7
20260503204524 87 4 1.0 4.0 0.00 0.00 0.00 37 1011.0
20260503203008 87 307 2.0 4.0 0.00 0.00 0.00 38 1011.2
20260503201511 86 279 1.0 5.0 0.00 0.00 0.00 41 1011.5
20260503200018 84 298 2.0 4.0 0.00 0.00 0.00 43 1011.7
20260503194522 84 221 1.0 5.0 0.00 0.00 0.00 41 1011.9
20260503193034 84 329 1.0 5.0 0.00 0.00 0.00 43 1012.0
20260503191506 83 321 1.0 4.0 0.00 0.00 0.00 44 1012.2
20260503190023 81 245 1.0 8.0 0.00 0.00 0.00 45 1012.4
20260503184518 81 46 1.0 6.0 0.00 0.00 0.00 44 1012.5
20260503183022 80 46 1.0 4.0 0.00 0.00 0.00 44 1012.6
20260503181525 80 3 1.0 5.0 0.00 0.00 0.00 45 1012.8
20260503180012 78 158 1.0 5.0 0.00 0.00 0.00 45 1012.9
20260503174513 77 17 1.0 4.0 0.00 0.00 0.00 46 1012.9
20260503173021 77 46 1.0 4.0 0.00 0.00 0.00 46 1013.1
20260503171522 76 2 1.0 4.0 0.00 0.00 0.00 46 1013.1
20260503081538 51 232 0.0 0.0 0.00 0.00 0.00 91 1014.3
20260503071531 52 232 0.0 0.0 0.00 0.00 0.00 89 1014.0
20260503054520 55 229 0.0 2.0 0.00 0.00 0.00 84 1014.2
20260503053007 56 220 0.0 1.0 0.00 0.00 0.00 84 1014.0
20260503051514 56 220 0.0 0.0 0.00 0.00 0.00 83 1014.0
20260503050018 57 201 0.0 3.0 0.00 0.00 0.00 82 1013.7
20260503044522 57 103 0.0 0.0 0.00 0.00 0.00 81 1013.8
20260503043007 58 103 0.0 0.0 0.00 0.00 0.00 80 1013.6
20260503041508 59 103 0.0 0.0 0.00 0.00 0.00 79 1013.5
20260503040021 60 101 0.0 1.0 0.00 0.00 0.00 76 1013.3
20260503034520 62 101 0.0 1.0 0.00 0.00 0.00 75 1013.0
20260503033027 63 101 0.0 1.0 0.00 0.00 0.00 72 1012.7
20260503031506 65 101 0.0 0.0 0.00 0.00 0.00 68 1012.4
20260503030012 67 101 0.0 1.0 0.00 0.00 0.00 60 1012.2
20260503024516 69 100 0.0 1.0 0.00 0.00 0.00 59 1012.2
20260503023021 70 100 0.0 1.0 0.00 0.00 0.00 55 1012.0
20260503021524 72 295 0.0 1.0 0.00 0.00 0.00 52 1012.0
20260503020008 73 268 0.0 5.0 0.00 0.00 0.00 50 1012.1
20260503014517 74 341 1.0 7.0 0.00 0.00 0.00 46 1012.1
20260503013021 75 253 1.0 4.0 0.00 0.00 0.00 48 1012.1
20260503011524 75 6 1.0 5.0 0.00 0.00 0.00 47 1012.0
20260503010027 76 278 1.0 7.0 0.00 0.00 0.00 47 1012.0
20260503004512 76 226 2.0 11.0 0.00 0.00 0.00 46 1012.1
20260503003036 78 304 2.0 7.0 0.00 0.00 0.00 45 1012.2
20260503001541 78 328 3.0 6.0 0.00 0.00 0.00 44 1012.3
20260503000027 79 274 3.0 8.0 0.00 0.00 0.00 44 1012.4
20260502234533 78 262 3.0 9.0 0.00 0.00 0.00 46 1012.5
20260502233023 78 256 1.0 9.0 0.00 0.00 0.00 46 1012.7
20260502231519 78 275 1.0 7.0 0.00 0.00 0.00 46 1012.7
20260502230031 78 348 2.0 7.0 0.00 0.00 0.00 47 1012.8
20260502224526 77 307 2.0 6.0 0.00 0.00 0.00 48 1012.9
20260502223016 78 304 2.0 7.0 0.00 0.00 0.00 48 1013.2
20260502221519 77 262 1.0 5.0 0.00 0.00 0.00 48 1013.4
20260502220020 77 326 2.0 8.0 0.00 0.00 0.00 47 1013.5